AirNav   Air Wisconsin Up To $57,000 Bonus
 
 1390 users online  

KVLL Oakland/Troy Airport
Troy, Michigan, USA

GOING TO TROY?


FAA INFORMATION EFFECTIVE 03 DECEMBER 2020

Location

FAA Identifier: VLL
Lat/Long: 42-32-34.6000N 083-10-40.4000W
42-32.576667N 083-10.673333W
42.5429444,-83.1778889
(estimated)
Elevation: 727.2 ft. / 221.7 m (surveyed)
Variation: 06W (1995)
From city: 2 miles E of TROY, MI
Time zone: UTC -5 (UTC -4 during Daylight Saving Time)
Zip code: 48084

Airport Operations

Airport use: Open to the public
Control tower: no
ARTCC: CLEVELAND CENTER
FSS: LANSING FLIGHT SERVICE STATION
NOTAMs facility: VLL (NOTAM-D service available)
Attendance: 0800-1800
Pattern altitude: 1727.2 ft. MSL
Wind indicator: lighted
Segmented circle: no
Lights: ACTVT MIRL RY 09/27 & PAPI RYS 09 & 27 - CTAF.
Beacon: white-green (lighted land airport)
Operates sunset to sunrise.
Landing fee: yes

Airport Communications

CTAF/UNICOM: 123.05
WX AWOS-3: 119.475 (248-288-4649)
DETROIT APPROACH: 134.3
DETROIT DEPARTURE: 134.3
WX ASOS at DET (11 nm SE): PHONE 313-371-9696
WX ASOS at PTK (13 nm NW): 125.025 (248-886-8551)

Nearby radio navigation aids

VOR radial/distance  VOR name  Freq  Var
SVMr069/20.1SALEM VORTAC114.3003W
DXOr029/21.5DETROIT VOR/DME113.4006W
CRLr026/32.2CARLETON VOR/DME115.7003W
FNTr141/35.7FLINT VORTAC116.9006W

 
NDB name  Hdg/Dist  Freq  Var  ID
GROSSE ILE005/26.541907WRYS .-. -.-- ...

Airport Services

Fuel available: 100LL JET-A
Parking: tiedowns
Airframe service: NONE
Powerplant service: NONE

Runway Information

Runway 9/27

Dimensions: 3549 x 60 ft. / 1082 x 18 m
Surface: asphalt, in fair condition
Runway edge lights: medium intensity
RUNWAY 9  RUNWAY 27
Latitude: 42-32.575973N42-32.578848N
Longitude: 083-11.068925W083-10.278788W
Elevation: 727.0 ft.701.0 ft.
Traffic pattern: leftleft
Runway heading: 096 magnetic, 090 true276 magnetic, 270 true
Markings: nonprecision, in good conditionnonprecision, in good condition
Visual slope indicator: 2-light PAPI on right (3.75 degrees glide path)2-light PAPI on left (3.75 degrees glide path)
Runway end identifier lights: nono
Touchdown point: yes, no lightsyes, no lights
Obstructions: 19 ft. tree, 207 ft. from runway, 137 ft. right of centerline30 ft. tree, 200 ft. from runway, 125 ft. left of centerline

Airport Ownership and Management from official FAA records

Ownership: Publicly-owned
Owner: OAKLAND COUNTY
6500 HIGHLAND ROAD
WATERFORD, MI 48327
Phone (248) 288-6100
ARPT PHONE 248-666-3900
Manager: CHERYL BUSH
6500 HIGHLAND RD
WATERFORD, MI 48327
Phone 248-666-3900

Airport Operational Statistics

Aircraft based on the field: 113
Single engine airplanes: 102
Multi engine airplanes: 5
Helicopters: 5
Ultralights: 1
    
Aircraft operations: avg 82/day *
50% transient general aviation
50% local general aviation
* for 12-month period ending 31 December 2019

Additional Remarks

DEER AND BIRDS ON & INVOF ARPT.
RY 09 +3 FT BERM 316 FT FM THLD.
NO TGL OR PRACTICE TFC PATTERNS.
FOR CD CTC DETROIT APCH AT 800-499-8181.

Instrument Procedures

NOTE: All procedures below are presented as PDF files. If you need a reader for these files, you should download the free Adobe Reader.

NOT FOR NAVIGATION. Please procure official charts for flight.
FAA instrument procedures published for use from 03 December 2020 at 0901Z to 31 December 2020 at 0900Z.

 
STARs - Standard Terminal Arrivals
FOREY TWO (RNAV)   download (168KB)
OKLND ONE (RNAV)   download (149KB)
PETTE TWO (RNAV)   download (211KB)
RRALF THREE (RNAV)   download (169KB)
 
IAPs - Instrument Approach Procedures
RNAV (GPS) RWY 09   download (185KB)
 
Departure Procedures
BARII TWO (RNAV)   download (162KB)
CCOBB TWO (RNAV)   download (206KB)
CLVIN TWO (RNAV)   download (176KB)
HHOWE THREE (RNAV)   download (194KB)
KAYLN TWO (RNAV)   download (170KB)
LIDDS TWO (RNAV)   download (185KB)
MIGGY TWO (RNAV)   download (204KB)
PAVYL TWO (RNAV)   download (181KB)
SNDRS TWO (RNAV)   download (218KB)
TRMML THREE (RNAV)   download (167KB)
ZETTR THREE (RNAV)   download (208KB)
NOTE: Special Take-Off Minimums/Departure Procedures apply   download (125KB)

Other nearby airports with instrument procedures:

KDET - Coleman A Young Municipal Airport (11 nm SE)
KPTK - Oakland County International Airport (13 nm NW)
KMTC - Selfridge Air National Guard Base (16 nm E)
1D2 - Canton-Plymouth-Mettetal Airport (17 nm SW)
57D - Ray Community Airport (17 nm NE)
D98 - Romeo State Airport (18 nm NE)
Y47 - Oakland Southwest Airport (20 nm W)
 
Loc | Ops | Rwys | IFR | FBO | Links
Com | Nav | Svcs | Stats | Notes
Area around KVLL (Oakland/Troy Airport)
 
Road maps at: MapQuest Bing Google
 
Aerial photo
WARNING: Photo may not be current or correct
Aerial photo of KVLL (Oakland/Troy Airport)
Photo by Jeff Schuster
Photo taken 29-Jun-2014
looking west.

Do you have a better or more recent aerial photo of Oakland/Troy Airport that you would like to share? If so, please send us your photo.

 
Sectional chart

 
Airport distance calculator
Flying to Oakland/Troy Airport? Find the distance to fly.

From to KVLL

Sunrise and sunset
Times for 03-Dec-2020
 Local
(UTC-5)
 Zulu
(UTC)
Morning civil twilight07:1512:15
Sunrise07:4712:47
Sunset16:5921:59
Evening civil twilight17:3122:31

Current date and time
Zulu (UTC)  03-Dec-2020 20:29:41
Local (UTC-5)  03-Dec-2020 15:29:41
 
METAR
KVLL 032015Z AUTO 23015G22KT 10SM CLR 08/M06 A2998 RMK AO2 T00791061
KDET 
11nm SE 
031953Z 21008G17KT 10SM CLR 07/M04 A2998 RMK AO2 SLP157 T00721044
KPTK 
13nm NW 
031953Z 25011G18KT 10SM SCT160 BKN210 07/M06 A2995 RMK AO2 SLP148 T00671061
KMTC 
17nm E 
031956Z 20011KT 10SM SCT140 BKN180 07/M03 A2995 RMK AO2A SLP152 T00691034 $
CYQG 
19nm SE 
032000Z AUTO 21017G24KT 9SM BKN190 06/M03 A2999 RMK SLP164
KDTW 
20nm S 
031953Z 21017KT 10SM SCT140 BKN250 07/M03 A3000 RMK AO2 SLP166 T00671033
TAF
KDET 
11nm SE 
031722Z 0318/0418 24014G20KT P6SM BKN150 FM032300 22013KT P6SM OVC150 FM040600 21012KT P6SM OVC100 FM041200 23011KT P6SM OVC050
KPTK 
13nm NW 
031722Z 0318/0418 25014G25KT P6SM BKN150 FM032300 22013KT P6SM OVC150 FM040500 21012KT P6SM OVC100 FM041600 26008KT P6SM OVC025
KMTC 
17nm E 
031700Z 0317/0423 23012G18KT 9999 SKC QNH3003INS BECMG 0401/0402 26009KT 9999 SCT080 BKN120 QNH2992INS BECMG 0411/0412 26010G15KT 9999 SCT030 BKN080 610804 QNH2989INS BECMG 0417/0418 25012G18KT 9999 BKN030 OVC070 610309 QNH2983INS TX07/0318Z TN00/0413Z
CYQG 
19nm SE 
031739Z 0318/0418 23010G20KT P6SM SKC FM040200 23010G20KT P6SM SCT150 FM040500 23013G23KT P6SM OVC100 FM041300 24012G22KT P6SM SCT020 OVC080 RMK FCST BASED ON AUTO OBS. NXT FCST BY 040000Z
KDTW 
20nm S 
031722Z 0318/0424 24014G20KT P6SM BKN150 FM032300 22013KT P6SM OVC150 FM040600 21012KT P6SM OVC100 FM041200 23011KT P6SM OVC050 FM042200 28010KT P6SM OVC050
NOTAMs
Click for the latest NOTAMs
NOTAMs are issued by the DoD/FAA and will open in a separate window not controlled by AirNav.

 

 
 

FBO, Fuel Providers, and Aircraft Ground Support

  
 Business Name 
 
 Contact 
 
 Services / Description 
 
Fuel Prices
 
Comments
  
JDS Pump-N-Go 248-288-6100
[email]
Aviation fuel, Aircraft parking (ramp or tiedown), Hangar leasing / sales

More info about JDS Pump-N-Go
Avfuel
100LL Jet A
SS $5.02 $3.68 
 Updated 02-Dec-2020
 
   write
SS=Self service
Update Fuel Prices
 

Would you like to see your business listed on this page?

 If your business provides an interesting product or service to pilots, flight crews, aircraft, or users of the Oakland/Troy Airport, you should consider listing it here.  To start the listing process, click on the button below
 
Add a business
 

Other Pages about Oakland/Troy Airport

Oakland/Troy Airport Website
Page from the Michigan Airport Directory (PDF)
 
Update a link
 
Copyright © AirNav, LLC. All rights reserved. Privacy Policy  Contact